Showing default

SPARK 1, 41900

Orbit data source: Space-Track

SPARK 1, 41900 is a payload satellite owned by SECM (CN) in SSO that was launched on Wed, 21 Dec 2016 UTC via a CHANG ZHENG 2D launch vehicle from the Jiuquan Satellite Launch Center, China (JSC). Payload-class satellites include a variety of spacecraft equipped with specific instruments for various scientific and technological missions. These include communications satellites like Starlink; space stations such as the ISS; scientific satellites like the Hubble; Earth observation satellites from companies like Planet Labs, Umbra, and HawkEye 360; GPS; miniature CubeSats for education and research; and military/defense satellites.

Loading next visibility...
Identifier
41900, 2016-081C
Orbit
SSO
Country
Flag of CNCN / PRC
Related business
Manufacturer
SECM
Mission
Operational Civil Imaging
Bus & Motor
SPARK, Unknown motor
Mass
43 kg wet, 43 kg dry
Launch date (UTC)
2016-12-21 (9 years ago)
Launch vehicle
CHANG ZHENG 2D
Launch site
Jiuquan Satellite Launch Center, China (JSC)
Object type
Payload
Rocket body
Debris
Shape & HBR
Box + 2 Pan, 0.5 m
Radar Cross Section
0.388 m², Medium (>0.1 m² and < 1m²)

Expand to show TLE details & history
Last TLE update: 7 hours ago

TLE from 7 hours ago
0 SPARK 1
1 41900U 16081C   25298.49238247  .00000999  00000-0  22094-3 0  9992
2 41900  98.5311 281.0901 0023214 327.5824  32.3948 14.59387939470038
Epoch: 2025-10-25T11:49Z
TLE epoch observation values (Epoch: 2025-10-25T11:49:01.845Z)
Latitude
0.00004°
Longitude
69.71025°
Altitude
684.268 km
Speed
7.522 km/s
True Right ascension
18h 44m 21s
True Declination
0° 00' 00"
Sunlit
Object was in daylight at epoch
Visualization orbit readout
Latitude
Unknown
Longitude
Unknown
Altitude
Unknown
Speed
Unknown
Apparent Right ascension
Unknown
Apparent Declination
Unknown
Sunlit
N/A
Visualization observer readout
Local Sidereal Time
14:26:41
Azimuth
Unknown
Elevation
Unknown
Doppler factor
Unknown
Orbital elements
Apogee altitude
708.662 km
Perigee altitude
675.835 km
Semi-major axis
7,070.385 km
Eccentricity
0.00232
Inclination
98.5311°
RAAN
281.0901°
Arg. of periapsis
327.5824°
True anomaly
32.53767°
Mean anomaly
32.3948°
Eccentric anomaly
32.4662°
Mean motion
3.65072 °/min
Orbital period
98.61 mins
BSTAR
0.00022094
Loading maneuver chart data...
Computing Atmospheric mass density...
Loading historical data...
Loading historical data...
Loading historical data...
Loading historical data...
Loading historical data...
Loading historical data...
Loading historical data...
Other satellites on launch #81 in the year 2016 (2016-12-21 UTC)

Documentation

Showing up to 5 results
|